AA9VI-10 Weather Reports


Display with metric or nautical units.
time (UTC)temp
F
wind
direction
speed
MPH
gust
MPH
rain 1hr
in
rain 24hr
in
rain mn
in
humidity
%
barometer
mb
20260506085018 39 0.0 0.0 0.00 0.00 0.00 69 1011.4
20260506084018 39 0.0 0.0 0.00 0.00 0.00 68 1011.1
20260506083017 40 0.0 0.0 0.00 0.00 0.00 67 1011.1
20260506082017 40 0.0 0.0 0.00 0.00 0.00 66 1011.1
20260506081018 41 0.0 0.0 0.00 0.00 0.00 64 1011.2
20260506073018 43 0.0 0.0 0.00 0.00 0.00 60 1011.0
20260506072017 43 0.0 0.0 0.00 0.00 0.00 58 1010.8
20260506071017 44 0.0 0.0 0.00 0.00 0.00 56 1010.8
20260506062018 46 0.0 1.0 0.00 0.00 0.00 50 1011.1
20260506061017 46 0.0 2.0 0.00 0.00 0.00 50 1010.9
20260506051018 48 0.0 0.0 0.00 0.00 0.00 49 1010.6
20260506045016 49 0.0 0.0 0.00 0.00 0.00 47 1010.3
20260506044016 49 0.0 0.0 0.00 0.00 0.00 46 1010.3
20260506043016 50 0.0 2.0 0.00 0.00 0.00 46 1010.5
20260506042016 50 0.0 1.0 0.00 0.00 0.00 44 1010.3
20260506041016 50 0.0 2.0 0.00 0.00 0.00 43 1010.3
20260506040016 51 0.0 1.0 0.00 0.00 0.00 43 1010.2
20260506035016 51 0.0 2.0 0.00 0.00 0.00 42 1010.2
20260506034016 51 0 1.0 3.0 0.00 0.00 0.00 42 1010.3
20260506033016 51 0.0 2.0 0.00 0.00 0.00 43 1009.8
20260506032016 51 0 1.0 5.0 0.00 0.00 0.00 44 1009.6
20260506031016 51 315 1.0 2.0 0.00 0.00 0.00 45 1009.6
20260506030016 50 270 1.0 2.0 0.00 0.00 0.00 46 1009.5
20260506025016 50 0.0 0.0 0.00 0.00 0.00 50 1009.7
20260506024016 50 0.0 1.0 0.00 0.00 0.00 50 1009.7
20260506023016 51 0.0 0.0 0.00 0.00 0.00 48 1009.3
20260506022016 51 0.0 0.0 0.00 0.00 0.00 46 1009.3
20260506021016 51 0.0 0.0 0.00 0.00 0.00 46 1009.1
20260506020016 52 0.0 0.0 0.00 0.00 0.00 45 1008.9
20260506015016 52 0.0 0.0 0.00 0.00 0.00 44 1008.9
20260506014016 52 0.0 0.0 0.00 0.00 0.00 45 1008.7
20260506013016 53 0.0 0.0 0.00 0.00 0.00 42 1008.4
20260506012016 53 0.0 0.0 0.00 0.00 0.00 42 1008.3
20260506011016 53 0.0 0.0 0.00 0.00 0.00 41 1008.3
20260506010016 54 0.0 1.0 0.00 0.00 0.00 40 1008.2
20260506005016 54 0.0 1.0 0.00 0.00 0.00 40 1008.1
20260506004016 54 0.0 3.0 0.00 0.00 0.00 39 1007.9
20260506003016 54 0.0 2.0 0.00 0.00 0.00 38 1007.9
20260506002016 54 338 1.0 3.0 0.00 0.00 0.00 39 1007.7
20260506001016 55 293 1.0 2.0 0.00 0.00 0.00 37 1008.0
20260506000016 55 315 1.0 4.0 0.00 0.00 0.00 36 1007.9
20260505235017 55 338 1.0 3.0 0.00 0.00 0.00 37 1007.8
20260505234016 55 293 1.0 4.0 0.00 0.00 0.00 37 1007.8
20260505233016 55 0.0 2.0 0.00 0.00 0.00 36 1008.0
20260505232017 55 315 1.0 2.0 0.00 0.00 0.00 35 1007.9
20260505231016 55 315 1.0 2.0 0.00 0.00 0.00 37 1008.0
20260505230016 55 293 1.0 3.0 0.00 0.00 0.00 36 1008.1
20260505225016 55 315 1.0 3.0 0.00 0.00 0.00 35 1008.2
20260505224016 55 0 1.0 3.0 0.00 0.01 0.00 35 1008.3
20260505223016 55 315 1.0 4.0 0.00 0.01 0.00 35 1008.2
20260505222016 55 315 1.0 3.0 0.00 0.01 0.00 34 1008.1
20260505221016 56 338 1.0 3.0 0.00 0.01 0.00 35 1008.1
20260505220016 56 225 1.0 3.0 0.00 0.01 0.00 35 1008.4
20260505215016 56 293 2.0 4.0 0.00 0.01 0.00 34 1008.5
20260505214016 56 338 1.0 3.0 0.00 0.01 0.00 34 1008.3
20260505213016 56 293 1.0 5.0 0.00 0.01 0.00 34 1008.2
20260505212016 56 270 2.0 6.0 0.00 0.01 0.00 35 1008.1
20260505211016 56 315 1.0 7.0 0.00 0.01 0.00 34 1008.2
20260505210016 56 0.0 2.0 0.00 0.01 0.00 33 1008.2
20260505205016 56 293 1.0 3.0 0.00 0.01 0.00 35 1008.2
20260505204016 56 315 1.0 3.0 0.00 0.01 0.00 31 1008.4
20260505203016 56 293 1.0 3.0 0.00 0.01 0.00 31 1008.5
20260505202016 56 293 1.0 3.0 0.00 0.01 0.00 33 1008.6
20260505201016 56 0 2.0 4.0 0.00 0.01 0.00 34 1008.6
20260505200016 56 315 2.0 8.0 0.00 0.01 0.00 32 1008.7
20260505195016 57 293 2.0 6.0 0.00 0.01 0.00 33 1008.7
20260505194016 57 315 2.0 4.0 0.00 0.01 0.00 31 1008.6
20260505193016 57 315 2.0 4.0 0.00 0.01 0.00 29 1008.6
20260505192016 57 293 1.0 4.0 0.00 0.01 0.00 33 1008.8
20260505191016 57 270 1.0 4.0 0.00 0.01 0.00 33 1008.8
20260505190016 57 315 1.0 4.0 0.00 0.01 0.00 37 1008.8
20260505185016 57 270 2.0 4.0 0.00 0.01 0.00 30 1008.8
20260505184016 56 248 1.0 3.0 0.00 0.01 0.00 33 1008.8
20260505183016 56 225 2.0 10.0 0.00 0.01 0.00 34 1008.8
20260505182016 56 225 3.0 10.0 0.00 0.01 0.00 31 1008.8
20260505181016 56 270 2.0 4.0 0.00 0.01 0.00 36 1008.8
20260505180016 56 315 1.0 4.0 0.00 0.01 0.00 32 1008.6
20260505175016 56 203 2.0 5.0 0.00 0.01 0.00 37 1008.5
20260505174016 56 0 2.0 4.0 0.00 0.01 0.00 35 1008.5
20260505173016 56 0 1.0 4.0 0.00 0.01 0.00 35 1008.5
20260505172016 56 0 2.0 4.0 0.00 0.01 0.00 35 1008.4
20260505171016 56 0 2.0 6.0 0.00 0.01 0.00 36 1008.4
20260505170016 55 0 2.0 5.0 0.00 0.01 0.00 34 1008.2
20260505165016 55 0 1.0 5.0 0.00 0.01 0.00 39 1008.4
20260505164016 54 0 2.0 5.0 0.00 0.01 0.00 37 1008.6
20260505163016 54 338 2.0 4.0 0.00 0.01 0.00 38 1008.5
20260505162016 53 270 1.0 3.0 0.00 0.01 0.00 38 1008.3
20260505161016 53 0 2.0 7.0 0.00 0.01 0.00 35 1008.2
20260505153016 53 315 2.0 4.0 0.00 0.01 0.00 45 1007.9
20260505152016 53 203 1.0 4.0 0.00 0.01 0.00 41 1008.1
20260505151016 52 270 1.0 3.0 0.00 0.01 0.00 44 1008.3
20260505125016 49 0.0 0.0 0.00 0.01 0.00 54 1008.4
20260505124016 49 0.0 2.0 0.00 0.01 0.00 53 1008.1
20260505123016 49 0.0 0.0 0.00 0.01 0.00 51 1008.3
20260505122016 49 338 1.0 2.0 0.00 0.01 0.00 52 1008.7
20260505121016 49 0.0 2.0 0.00 0.01 0.00 49 1007.9
20260505120016 49 0.0 1.0 0.00 0.01 0.00 49 1008.4
20260505115016 49 315 1.0 2.0 0.00 0.01 0.00 49 1008.0
20260505114015 49 0.0 2.0 0.00 0.01 0.00 49 1007.6
20260505113016 49 90 1.0 3.0 0.00 0.01 0.00 49 1006.7
20260505112016 49 338 1.0 3.0 0.00 0.01 0.00 49 1007.0
20260505111016 49 0 1.0 4.0 0.00 0.01 0.00 48 1006.5
20260505102016 51 315 1.0 2.0 0.00 0.01 0.00 50 1006.1
20260505101016 51 23 1.0 2.0 0.00 0.01 0.00 50 1005.9
20260505100016 51 338 2.0 5.0 0.00 0.01 0.00 49 1005.9
20260505095016 52 0 1.0 4.0 0.00 0.01 0.00 48 1005.8
20260505094016 52 0 2.0 5.0 0.00 0.01 0.00 47 1006.2
20260505093016 52 0 1.0 2.0 0.00 0.01 0.00 47 1006.3
20260505092016 52 0 2.0 4.0 0.00 0.01 0.00 46 1006.0
20260505091016 53 0 1.0 4.0 0.00 0.01 0.00 46 1005.6
20260505090016 53 0 2.0 8.0 0.00 0.01 0.00 45 1005.4